[[{"header":{"parameterUnit":"m.s-1","parameterCategory":1,"la1":30.2991,"la2":30.254,"lo1":-89.0895,"lo2":-89.0444,"dy":0.0017,"dx":0.0017,"nx":28,"ny":28,"refTime":"2024-12-31T09:00:00:Z","depth":0,"parameterNumber":2,"parameterNumberName":"U-component_of_WINDS"},"data":[0,0,0,0,0,0,0,0,0,0,0,0,0,0,0,0,0,0,0,0,0,0,0,0,0,0,0,0,0,0,0,0,0,0,0,0,0,0,0,0,0,0,0,0,0,0,0,0,0,0,0,0,0,0,0,0,0,0,-2.1103,-2.1103,0,-2.1153,-2.1153,-2.1154,-2.1107,-2.1105,-2.1103,-2.1101,-2.1154,-2.1157,-2.116,0,0,0,0,0,0,0,0,0,0,0,0,0,-2.0966,-2.0968,-2.1102,-2.1103,-2.1104,-2.1153,-2.1154,-2.1154,-2.1107,-2.1105,-2.1103,-2.11,-2.1153,-2.1157,-2.116,0,0,0,0,0,0,0,0,0,0,0,0,0,-2.1022,-2.0969,-2.1102,-2.1086,-2.1085,-2.1153,-2.1154,-2.1154,-2.1108,-2.1105,-2.1102,-2.1099,-2.1152,-2.1156,-2.1161,-2.1247,0,0,-2.1175,-2.1177,0,0,0,0,0,0,0,0,-2.1018,-2.1027,-2.1088,-2.1087,-2.1086,-2.1121,-2.1124,-2.1186,-2.1108,-2.1099,-2.1101,-2.1098,-2.1145,-2.115,-2.1166,-2.125,-2.1252,-2.1176,-2.1179,-2.1181,-2.1182,0,0,0,0,0,0,0,-2.1015,-2.1024,-2.1122,-2.1089,-2.1088,-2.1076,-2.1081,-2.1136,-2.1138,-2.11,-2.1096,-2.1103,-2.1144,-2.1162,-2.1167,-2.1253,-2.1176,-2.118,-2.1183,-2.1185,-2.141,-2.1413,0,0,0,0,0,0,-2.1012,-2.1021,-2.1121,-2.1124,-2.1045,-2.1081,-2.1087,-2.1113,-2.1137,-2.1138,-2.1105,-2.1101,-2.1155,-2.1161,-2.1169,-2.1272,-2.1181,-2.1185,-2.1188,-2.1406,-2.141,-2.1414,0,0,0,0,0,0,-2.101,-2.1022,-2.1119,-2.1072,-2.1083,-2.1087,-2.1116,-2.1115,-2.1132,-2.1141,-2.1141,-2.1123,-2.1153,-2.1162,-2.1228,-2.1273,-2.1187,-2.1192,-2.1403,-2.1408,-2.1412,-2.1479,0,0,0,0,0,0,-2.1006,-2.1021,-2.1054,-2.1073,-2.1086,-2.1178,-2.1119,-2.1118,-2.1141,-2.1135,-2.1157,-2.1158,-2.1151,-2.1221,-2.1233,-2.1278,-2.1195,-2.1399,-2.1405,-2.141,-2.1473,-2.1485,-2.1496,0,0,0,0,0,-2.1001,-2.1071,-2.1056,-2.1068,-2.1127,-2.118,-2.1188,-2.1178,-2.1144,-2.1178,-2.1183,-2.1158,-2.1266,-2.1228,-2.1241,-2.1288,-2.1396,-2.1403,-2.141,-2.1467,-2.1483,-2.1496,0,0,0,0,0,0,-2.1058,-2.1073,-2.1057,-2.1135,-2.1156,-2.1172,-2.1214,-2.1194,-2.1227,-2.122,-2.1206,-2.1212,-2.1282,-2.1291,-2.1249,-2.1373,-2.1325,-2.1335,-2.1365,-2.1379,-2.1391,-2.1388,-2.1199,0,0,0,0,0,-2.1079,-2.1121,-2.1132,-2.12,-2.1211,-2.1211,-2.1234,-2.1224,-2.1246,-2.1255,-2.1266,-2.1288,-2.1327,-2.1353,-2.139,-2.1473,-2.1478,-2.1512,-2.1523,-2.1533,-2.1542,-2.1587,-2.1603,-2.1437,-2.1437,-2.1437,0,0,-2.1124,-2.1138,-2.1165,-2.1211,-2.1227,-2.1271,-2.1219,-2.1268,-2.13,-2.1263,-2.1326,-2.1334,-2.1359,-2.1434,-2.1467,-2.1444,-2.1589,-2.1542,-2.1549,-2.1554,-2.1596,-2.1612,-2.1626,-2.1442,-2.1441,-2.144,0,0,-2.1229,-2.1243,-2.1301,-2.1318,-2.1342,-2.1341,-2.1355,-2.1374,-2.1378,-2.1441,-2.1414,-2.1452,-2.1519,-2.1538,-2.1556,-2.1667,-2.1645,-2.1679,-2.1741,-2.1785,-2.1798,-2.1809,-2.185,-2.1865,-2.1688,-2.1688,-2.1688,0,-2.1283,-2.1347,-2.1334,-2.1385,-2.1406,-2.1373,-2.1432,-2.1449,-2.1484,-2.15,-2.1472,-2.1556,-2.157,-2.1649,-2.1676,-2.1692,-2.1708,-2.1677,-2.1797,-2.1808,-2.1819,-2.1858,-2.1873,-2.1692,-2.1691,-2.1691,-2.1691,0,-2.1412,-2.1457,-2.1501,-2.1536,-2.1562,-2.1617,-2.1611,-2.1639,-2.1627,-2.1628,-2.1693,-2.1708,-2.1747,-2.1765,-2.1753,-2.1843,-2.1828,-2.1799,-2.1751,-2.1839,-2.1875,-2.189,-2.1698,-2.1696,-2.1695,-2.1694,0,0,-2.1556,-2.1582,-2.1598,-2.1614,-2.1637,-2.1672,-2.1725,-2.1763,-2.1787,-2.1812,-2.1857,-2.1913,-2.1887,-2.1908,-2.1898,-2.1936,-2.2024,-2.1903,-2.1903,-2.1926,-2.2124,-2.2147,-2.2164,-2.2009,-2.2011,-2.2013,-2.2123,0,-2.1663,-2.1755,-2.1744,-2.1832,-2.1874,-2.1842,-2.1888,-2.1908,-2.1911,-2.1947,-2.1949,-2.1991,-2.1952,-2.1964,-2.2001,-2.2006,-2.2064,-2.1997,-2.2051,-2.2053,-2.2048,-2.2183,-2.2207,-2.231,-2.2136,-2.2139,-2.2141,0,-2.1801,-2.183,-2.1923,-2.194,-2.1957,-2.1998,-2.2032,-2.2066,-2.2088,-2.2087,-2.211,-2.2093,-2.2145,-2.2095,-2.2168,-2.2123,-2.2144,-2.2149,-2.2153,-2.2159,-2.2104,-2.2195,-2.2342,-2.2358,-2.2162,-2.2161,-2.2159,0,-2.1898,-2.1961,-2.2024,-2.2038,-2.2059,-2.209,-2.21,-2.2118,-2.2141,-2.217,-2.2185,-2.222,-2.224,-2.2267,-2.226,-2.2224,-2.2335,-2.2284,-2.2337,-2.2337,-2.2363,-2.2362,-2.2518,-2.2374,-2.2374,-2.2373,-2.2373,0,-2.202,-2.2078,-2.2069,-2.2108,-2.2172,-2.2158,-2.2222,-2.2228,-2.2244,-2.2284,-2.2258,-2.2296,-2.2284,-2.2321,-2.2315,-2.2377,-2.2386,-2.2387,-2.2385,-2.2391,-2.2391,-2.2406,-2.2399,-2.2377,-2.2376,-2.2376,-2.2375,0,-2.2141,-2.2137,-2.2204,-2.2218,-2.2223,-2.227,-2.2282,-2.2319,-2.2318,-2.2369,-2.2381,-2.2381,-2.2423,-2.2418,-2.2465,-2.2461,-2.2539,-2.2527,-2.2532,-2.253,-2.2584,-2.2579,-2.2756,-2.2779,-2.2618,-2.262,-2.2621,0,-2.222,-2.2264,-2.2283,-2.2308,-2.232,-2.236,-2.2383,-2.2371,-2.2396,-2.2423,-2.2457,-2.2497,-2.2529,-2.2598,-2.2602,-2.2638,-2.2629,-2.2688,-2.2634,-2.2638,-2.2632,-2.263,-2.2635,-2.27,-2.2701,-2.2703,-2.2704,0,-2.2361,-2.2357,-2.2392,-2.2426,-2.2454,-2.2481,-2.2504,-2.2526,-2.2515,-2.2545,-2.2588,-2.2613,-2.2661,-2.2701,-2.2735,-2.2745,-2.2724,-2.2721,-2.2735,-2.2742,-2.2744,-2.2745,-2.2563,-2.2717,-2.2716,-2.2715,-2.2714,-2.2714,-2.2465,-2.2503,-2.2522,-2.2561,-2.2577,-2.26,-2.2635,-2.2639,-2.2675,-2.2713,-2.2703,-2.2752,-2.2771,-2.2814,-2.2828,-2.2866,-2.2844,-2.2865,-2.287,-2.2876,-2.2883,-2.2736,-2.2872,-2.2871,-2.2871,-2.287,-2.287,0,-2.2606,-2.2616,-2.2653,-2.2686,-2.2718,-2.2693,-2.2717,-2.2745,-2.2789,-2.2808,-2.284,-2.2889,-2.2928,-2.2934,-2.2971,-2.3,-2.2991,-2.301,-2.3009,-2.3012,-2.29,-2.2884,-2.3017,-2.3017,-2.3017,-2.3017,-2.3017,-2.3017,-2.2683,-2.2746,-2.2744,-2.2814,-2.2824,-2.2871,-2.2888,-2.2908,-2.2924,-2.298,-2.3012,-2.3016,-2.303,-2.3068,-2.3102,-2.3103,-2.3118,-2.3142,-2.3139,-2.3035,-2.302,-2.3006,-2.2992,-2.3145,-2.3145,-2.3249,-2.325,-2.325]},{"header":{"parameterUnit":"m.s-1","parameterCategory":1,"la1":30.2991,"la2":30.254,"lo1":-89.0895,"lo2":-89.0444,"dy":0.0017,"dx":0.0017,"nx":28,"ny":28,"refTime":"2024-12-31T09:00:00:Z","depth":0,"parameterNumber":3,"parameterNumberName":"V-component_of_WINDS"},"data":[0,0,0,0,0,0,0,0,0,0,0,0,0,0,0,0,0,0,0,0,0,0,0,0,0,0,0,0,0,0,0,0,0,0,0,0,0,0,0,0,0,0,0,0,0,0,0,0,0,0,0,0,0,0,0,0,0,0,-5.6709,-5.671,0,-5.6791,-5.6792,-5.6793,-5.6743,-5.6741,-5.6738,-5.6736,-5.6815,-5.6819,-5.6824,0,0,0,0,0,0,0,0,0,0,0,0,0,-5.6504,-5.6508,-5.6709,-5.671,-5.6711,-5.6791,-5.6792,-5.6794,-5.6744,-5.6741,-5.6738,-5.6735,-5.6814,-5.6819,-5.6824,0,0,0,0,0,0,0,0,0,0,0,0,0,-5.659,-5.6509,-5.6709,-5.6696,-5.6696,-5.6791,-5.6792,-5.6794,-5.6744,-5.6741,-5.6737,-5.6734,-5.6812,-5.6818,-5.6825,-5.6936,0,0,-5.6845,-5.6847,0,0,0,0,0,0,0,0,-5.6585,-5.6598,-5.6697,-5.6697,-5.6697,-5.6754,-5.6749,-5.6841,-5.6745,-5.6726,-5.6736,-5.6732,-5.6797,-5.6805,-5.6828,-5.694,-5.6943,-5.6845,-5.6849,-5.6852,-5.6854,0,0,0,0,0,0,0,-5.6579,-5.6594,-5.6742,-5.6698,-5.6699,-5.6684,-5.6693,-5.6766,-5.678,-5.6727,-5.6724,-5.6734,-5.6797,-5.6822,-5.6829,-5.6944,-5.6845,-5.6851,-5.6855,-5.6857,-5.715,-5.7154,0,0,0,0,0,0,-5.6575,-5.6589,-5.6739,-5.6744,-5.6631,-5.6691,-5.67,-5.6739,-5.6779,-5.6782,-5.6737,-5.6732,-5.6812,-5.6822,-5.6832,-5.6965,-5.6852,-5.6858,-5.6862,-5.7147,-5.7151,-5.7156,0,0,0,0,0,0,-5.6571,-5.6589,-5.6736,-5.6666,-5.6683,-5.6699,-5.6742,-5.6742,-5.6768,-5.6787,-5.6789,-5.6761,-5.681,-5.6823,-5.6911,-5.6967,-5.6861,-5.6867,-5.7142,-5.7148,-5.7153,-5.7231,0,0,0,0,0,0,-5.6565,-5.6588,-5.6631,-5.6667,-5.6687,-5.6815,-5.6745,-5.6747,-5.6779,-5.6773,-5.681,-5.6812,-5.6808,-5.6901,-5.6917,-5.6974,-5.6872,-5.7137,-5.7145,-5.7152,-5.7224,-5.7239,-5.7252,0,0,0,0,0,-5.6558,-5.6649,-5.6634,-5.6652,-5.6743,-5.6818,-5.683,-5.6825,-5.6784,-5.6827,-5.684,-5.6811,-5.6958,-5.6911,-5.6928,-5.6987,-5.7133,-5.7143,-5.7151,-5.7217,-5.7236,-5.7252,0,0,0,0,0,0,-5.6617,-5.6653,-5.6637,-5.6743,-5.6778,-5.681,-5.6864,-5.6844,-5.6891,-5.6883,-5.6872,-5.6881,-5.6973,-5.6989,-5.6936,-5.7097,-5.7039,-5.7052,-5.7084,-5.7101,-5.7115,-5.711,-5.6877,0,0,0,0,0,-5.6643,-5.6704,-5.6731,-5.6821,-5.684,-5.6849,-5.6882,-5.6875,-5.6911,-5.6925,-5.6944,-5.6978,-5.7031,-5.7067,-5.7118,-5.7225,-5.7232,-5.7275,-5.7289,-5.73,-5.7312,-5.7369,-5.7389,-5.7184,-5.7184,-5.7184,0,0,-5.6696,-5.6723,-5.6762,-5.6834,-5.686,-5.6922,-5.6862,-5.6929,-5.6974,-5.6934,-5.7019,-5.7034,-5.7071,-5.717,-5.7214,-5.7186,-5.7369,-5.7312,-5.7321,-5.7326,-5.7381,-5.74,-5.7417,-5.719,-5.7189,-5.7188,0,0,-5.6824,-5.6851,-5.693,-5.6958,-5.7,-5.7005,-5.7024,-5.7059,-5.7068,-5.7153,-5.7125,-5.7177,-5.727,-5.7298,-5.7324,-5.7463,-5.7438,-5.7479,-5.7554,-5.761,-5.7626,-5.7641,-5.769,-5.7708,-5.749,-5.7491,-5.7491,0,-5.6885,-5.6978,-5.6972,-5.7042,-5.7074,-5.7043,-5.7121,-5.7148,-5.7203,-5.7226,-5.7193,-5.731,-5.7332,-5.7437,-5.7471,-5.7493,-5.7514,-5.7476,-5.7625,-5.7639,-5.7652,-5.7699,-5.7718,-5.7495,-5.7495,-5.7494,-5.7494,0,-5.705,-5.7115,-5.7173,-5.7229,-5.7268,-5.7341,-5.7345,-5.7385,-5.7374,-5.7383,-5.7469,-5.7496,-5.7551,-5.7575,-5.7565,-5.7678,-5.7659,-5.7626,-5.7568,-5.7677,-5.7721,-5.7739,-5.7502,-5.75,-5.7499,-5.7498,0,0,-5.7218,-5.7271,-5.7293,-5.7318,-5.7362,-5.7411,-5.7482,-5.7538,-5.7572,-5.7611,-5.767,-5.775,-5.7719,-5.7749,-5.7741,-5.7791,-5.79,-5.7752,-5.7752,-5.7779,-5.8026,-5.8051,-5.8073,-5.7883,-5.7886,-5.7889,-5.8023,0,-5.735,-5.7478,-5.7474,-5.7592,-5.7652,-5.7622,-5.7685,-5.7717,-5.7727,-5.7777,-5.7786,-5.7843,-5.7799,-5.7817,-5.7865,-5.7876,-5.7949,-5.7867,-5.7937,-5.794,-5.793,-5.8096,-5.8123,-5.8248,-5.804,-5.8043,-5.8045,0,-5.7521,-5.7568,-5.7692,-5.7727,-5.7752,-5.7809,-5.7859,-5.7908,-5.7944,-5.7947,-5.7981,-5.7965,-5.8036,-5.7976,-5.8073,-5.8017,-5.8045,-5.8055,-5.806,-5.8067,-5.8,-5.8107,-5.8287,-5.8307,-5.8072,-5.807,-5.8068,0,-5.7632,-5.7726,-5.7813,-5.7835,-5.7878,-5.7918,-5.7937,-5.797,-5.8004,-5.8047,-5.8069,-5.812,-5.8147,-5.8186,-5.8184,-5.814,-5.8283,-5.8222,-5.8287,-5.8287,-5.8318,-5.8317,-5.8506,-5.8336,-5.8336,-5.8335,-5.8335,0,-5.7779,-5.7857,-5.7863,-5.7917,-5.8002,-5.7997,-5.8081,-5.8096,-5.8125,-5.8179,-5.8156,-5.8207,-5.8201,-5.8252,-5.825,-5.8331,-5.8343,-5.8347,-5.8346,-5.835,-5.835,-5.8369,-5.836,-5.834,-5.8339,-5.8338,-5.8337,0,-5.7919,-5.7926,-5.8019,-5.8052,-5.8062,-5.8124,-5.8151,-5.8201,-5.8209,-5.8278,-5.8294,-5.8305,-5.8364,-5.8366,-5.8433,-5.8432,-5.853,-5.8519,-5.8519,-5.8517,-5.8582,-5.8576,-5.8791,-5.8819,-5.863,-5.8632,-5.8633,0,-5.8013,-5.8072,-5.8112,-5.8148,-5.8171,-5.8228,-5.8263,-5.8259,-5.8296,-5.8341,-5.8386,-5.8443,-5.8488,-5.8584,-5.8597,-5.8648,-5.8638,-5.8709,-5.8645,-5.8647,-5.8639,-5.8636,-5.8642,-5.8722,-5.8724,-5.8726,-5.8727,0,-5.8179,-5.818,-5.8232,-5.8286,-5.8329,-5.8371,-5.8409,-5.8439,-5.8439,-5.8482,-5.8543,-5.8579,-5.8648,-5.8704,-5.8754,-5.8771,-5.875,-5.8747,-5.8765,-5.877,-5.8768,-5.8771,-5.8554,-5.8743,-5.8741,-5.874,-5.8739,-5.8739,-5.8299,-5.8351,-5.8387,-5.8446,-5.8475,-5.8512,-5.8561,-5.8575,-5.8626,-5.8684,-5.8677,-5.8745,-5.8778,-5.8843,-5.8865,-5.8916,-5.8891,-5.8917,-5.8923,-5.893,-5.8937,-5.876,-5.8925,-5.8925,-5.8924,-5.8924,-5.8924,0,-5.8465,-5.8487,-5.8542,-5.8597,-5.8643,-5.862,-5.8661,-5.8701,-5.8761,-5.8795,-5.8841,-5.8911,-5.8965,-5.8983,-5.9036,-5.9074,-5.9065,-5.9088,-5.9085,-5.9089,-5.8957,-5.8936,-5.9094,-5.9094,-5.9094,-5.9094,-5.9094,-5.9094,-5.8557,-5.8643,-5.8648,-5.8747,-5.8768,-5.8836,-5.8862,-5.8895,-5.8922,-5.9002,-5.9048,-5.9059,-5.9086,-5.9141,-5.9189,-5.9193,-5.9213,-5.9241,-5.924,-5.9116,-5.9099,-5.9082,-5.9063,-5.9245,-5.9245,-5.9369,-5.937,-5.9371]}]]